[[{"header":{"parameterUnit":"m.s-1","parameterCategory":1,"la1":30.2991,"la2":30.254,"lo1":-89.0895,"lo2":-89.0444,"dy":0.0017,"dx":0.0017,"nx":28,"ny":28,"refTime":"2023-04-30T15:00:00:Z","depth":0,"parameterNumber":2,"parameterNumberName":"U-component_of_WINDS"},"data":[0,0,0,0,0,0,0,0,0,0,0,0,0,0,0,0,0,0,0,0,0,0,0,0,0,0,0,0,0,0,0,0,0,0,0,0,0,0,0,0,0,0,0,0,0,0,0,0,0,0,0,0,0,0,0,0,0,0,2.4173,2.4173,0,2.4256,2.4257,2.4258,2.4312,2.4312,2.4312,2.4313,2.4402,2.4404,2.4406,0,0,0,0,0,0,0,0,0,0,0,0,0,2.4063,2.4065,2.4172,2.4174,2.4175,2.4256,2.4257,2.4259,2.4312,2.4312,2.4313,2.4313,2.4401,2.4404,2.4406,0,0,0,0,0,0,0,0,0,0,0,0,0,2.4125,2.4066,2.4172,2.4211,2.4215,2.4256,2.4257,2.4259,2.4312,2.4312,2.4313,2.4313,2.4401,2.4404,2.4407,2.4417,0,0,2.4416,2.4418,0,0,0,0,0,0,0,0,2.4122,2.4129,2.4204,2.4208,2.4213,2.4274,2.4252,2.4312,2.4312,2.4275,2.4313,2.4313,2.4359,2.4366,2.4381,2.4421,2.4425,2.4417,2.4419,2.442,2.4421,0,0,0,0,0,0,0,2.4117,2.4126,2.4206,2.4205,2.4211,2.4226,2.4235,2.4263,2.4314,2.4278,2.4282,2.4291,2.4362,2.4378,2.4383,2.4426,2.4417,2.4419,2.4421,2.4423,2.4482,2.4482,0,0,0,0,0,0,2.4106,2.4122,2.4203,2.4208,2.4168,2.4227,2.4238,2.4254,2.4314,2.4323,2.4291,2.4294,2.4372,2.438,2.4387,2.4404,2.442,2.4423,2.4425,2.4482,2.4482,2.4482,0,0,0,0,0,0,2.4104,2.4113,2.42,2.4166,2.4179,2.4229,2.4247,2.4256,2.4271,2.4323,2.4333,2.4297,2.4373,2.4382,2.4409,2.4408,2.4424,2.4427,2.4483,2.4482,2.4482,2.4437,0,0,0,0,0,0,2.41,2.4112,2.4115,2.4166,2.418,2.4219,2.4247,2.4257,2.4276,2.428,2.4332,2.4341,2.4374,2.4404,2.4412,2.4412,2.443,2.4483,2.4482,2.4482,2.4439,2.4435,2.4432,0,0,0,0,0,2.4096,2.4099,2.4115,2.4124,2.4185,2.4219,2.4227,2.4264,2.4276,2.428,2.4314,2.4339,2.4406,2.4407,2.4416,2.4417,2.4483,2.4483,2.4482,2.4441,2.4436,2.4432,0,0,0,0,0,0,2.4047,2.4107,2.4124,2.4143,2.4176,2.4228,2.4234,2.4258,2.4289,2.4291,2.4337,2.4349,2.4371,2.4397,2.4396,2.4431,2.4448,2.4449,2.4413,2.4409,2.4406,2.4399,2.4432,0,0,0,0,0,2.4038,2.406,2.4111,2.4124,2.4139,2.4184,2.42,2.4226,2.4262,2.4276,2.4312,2.4346,2.4376,2.4394,2.4424,2.4443,2.4456,2.4449,2.4445,2.4442,2.4443,2.4457,2.4455,2.4479,2.4479,2.4479,0,0,2.4021,2.4056,2.4067,2.4115,2.4143,2.4166,2.4195,2.4217,2.4236,2.428,2.4307,2.4335,2.4377,2.4401,2.4413,2.4423,2.4439,2.4441,2.4438,2.4441,2.4456,2.4454,2.4452,2.4479,2.4479,2.4479,0,0,2.4001,2.4029,2.4042,2.407,2.4112,2.4142,2.4146,2.4195,2.4215,2.4243,2.4277,2.4301,2.4349,2.4379,2.44,2.4393,2.4418,2.4402,2.4383,2.4397,2.4395,2.4393,2.4392,2.4391,2.4402,2.4402,2.4402,0,2.3974,2.4008,2.4047,2.4068,2.4089,2.413,2.4145,2.4171,2.422,2.4235,2.4245,2.4309,2.434,2.4372,2.437,2.4386,2.4393,2.4396,2.4392,2.4391,2.439,2.4389,2.4389,2.44,2.44,2.44,2.44,0,2.3974,2.3997,2.4004,2.405,2.4072,2.409,2.4134,2.4151,2.4176,2.4206,2.4236,2.4275,2.4314,2.4324,2.4348,2.436,2.4365,2.4383,2.4401,2.4385,2.4385,2.4385,2.4397,2.4397,2.4398,2.4399,0,0,2.3924,2.3992,2.3994,2.4017,2.4067,2.4087,2.4108,2.4146,2.4161,2.4194,2.4215,2.4256,2.4273,2.4298,2.4326,2.4338,2.4332,2.4355,2.4356,2.435,2.4349,2.4336,2.4335,2.4349,2.4349,2.4349,2.4346,0,2.3911,2.395,2.3986,2.4012,2.4036,2.4076,2.4095,2.4129,2.4158,2.4184,2.4216,2.4245,2.4265,2.4281,2.4294,2.4329,2.4332,2.433,2.4369,2.437,2.4358,2.4335,2.432,2.4315,2.4346,2.4346,2.4346,0,2.3902,2.3933,2.3961,2.4011,2.4022,2.4038,2.4077,2.41,2.4141,2.4161,2.4189,2.4219,2.4245,2.4261,2.4299,2.4297,2.4315,2.4336,2.4336,2.4342,2.4357,2.434,2.4314,2.4314,2.4347,2.4347,2.4347,0,2.3864,2.3913,2.3937,2.3955,2.4013,2.4024,2.4049,2.4089,2.411,2.4145,2.4159,2.4196,2.4217,2.4246,2.4286,2.4293,2.4321,2.4339,2.434,2.4339,2.4344,2.4343,2.4322,2.4355,2.4355,2.4355,2.4355,0,2.3846,2.3862,2.3921,2.3935,2.3955,2.3998,2.4017,2.4046,2.4082,2.4105,2.4142,2.4163,2.4214,2.4242,2.4274,2.4302,2.4311,2.4329,2.4338,2.4326,2.4324,2.4339,2.4341,2.4355,2.4355,2.4355,2.4355,0,2.3807,2.3846,2.3875,2.3928,2.3942,2.3954,2.4001,2.4018,2.4049,2.4077,2.4086,2.4137,2.4171,2.4214,2.4263,2.4284,2.4309,2.4322,2.4295,2.43,2.4299,2.4299,2.4287,2.4288,2.4319,2.4319,2.4319,0,2.3793,2.3806,2.3861,2.3878,2.3902,2.3929,2.3951,2.3994,2.4016,2.4064,2.4075,2.4113,2.4144,2.4198,2.424,2.4278,2.4292,2.4285,2.4298,2.4287,2.4293,2.4292,2.4295,2.4282,2.4281,2.4281,2.4281,0,2.3765,2.3785,2.3813,2.385,2.3874,2.3905,2.3938,2.3951,2.4002,2.4024,2.4059,2.4084,2.4134,2.4171,2.4215,2.4243,2.4271,2.4276,2.4279,2.4267,2.4252,2.4261,2.4287,2.4276,2.4277,2.4277,2.4277,2.4278,2.3739,2.3753,2.3794,2.3826,2.3855,2.3886,2.3904,2.3939,2.3968,2.4011,2.4036,2.4071,2.4114,2.4175,2.4202,2.4231,2.4242,2.4245,2.4246,2.4246,2.4243,2.4247,2.4239,2.424,2.424,2.424,2.424,0,2.3714,2.3743,2.3771,2.3816,2.3842,2.3865,2.3903,2.3923,2.3953,2.399,2.4021,2.4062,2.4099,2.4144,2.4185,2.42,2.4214,2.4209,2.4209,2.4215,2.4231,2.4225,2.4197,2.4197,2.4197,2.4197,2.4197,2.4197,2.3704,2.373,2.3754,2.3796,2.3825,2.3859,2.3879,2.3908,2.3937,2.3982,2.4012,2.4041,2.4082,2.4126,2.4162,2.4174,2.4188,2.4179,2.4196,2.421,2.4214,2.4217,2.4212,2.4182,2.4182,2.4178,2.4178,2.4178]},{"header":{"parameterUnit":"m.s-1","parameterCategory":1,"la1":30.2991,"la2":30.254,"lo1":-89.0895,"lo2":-89.0444,"dy":0.0017,"dx":0.0017,"nx":28,"ny":28,"refTime":"2023-04-30T15:00:00:Z","depth":0,"parameterNumber":3,"parameterNumberName":"V-component_of_WINDS"},"data":[0,0,0,0,0,0,0,0,0,0,0,0,0,0,0,0,0,0,0,0,0,0,0,0,0,0,0,0,0,0,0,0,0,0,0,0,0,0,0,0,0,0,0,0,0,0,0,0,0,0,0,0,0,0,0,0,0,0,0.9217,0.9217,0,0.9157,0.9157,0.9156,0.9106,0.9105,0.9105,0.9104,0.9043,0.9042,0.9041,0,0,0,0,0,0,0,0,0,0,0,0,0,0.9288,0.9287,0.9217,0.9217,0.9216,0.9157,0.9156,0.9156,0.9106,0.9105,0.9105,0.9104,0.9044,0.9042,0.9041,0,0,0,0,0,0,0,0,0,0,0,0,0,0.9246,0.9287,0.9218,0.9184,0.918,0.9157,0.9156,0.9155,0.9106,0.9105,0.9104,0.9104,0.9044,0.9043,0.9041,0.9047,0,0,0.9036,0.9035,0,0,0,0,0,0,0,0,0.9248,0.9243,0.919,0.9186,0.9182,0.9138,0.9159,0.9119,0.9106,0.9134,0.9104,0.9103,0.9076,0.9071,0.9062,0.9044,0.9041,0.9036,0.9035,0.9034,0.9033,0,0,0,0,0,0,0,0.9251,0.9246,0.9194,0.9189,0.9184,0.9172,0.9165,0.9151,0.911,0.9132,0.9128,0.9122,0.9073,0.9064,0.906,0.904,0.9036,0.9034,0.9033,0.9032,0.902,0.9021,0,0,0,0,0,0,0.926,0.9248,0.9196,0.9192,0.9214,0.9171,0.9163,0.9153,0.911,0.9103,0.9122,0.9119,0.9067,0.9062,0.9058,0.9059,0.9034,0.9032,0.9031,0.902,0.9021,0.9021,0,0,0,0,0,0,0.9261,0.9255,0.9198,0.9219,0.9211,0.9171,0.916,0.9152,0.9142,0.9103,0.9095,0.912,0.9066,0.906,0.9049,0.9056,0.9032,0.903,0.9019,0.902,0.9021,0.9063,0,0,0,0,0,0,0.9264,0.9256,0.9258,0.9219,0.921,0.9191,0.916,0.9152,0.914,0.9135,0.9099,0.9092,0.9065,0.9052,0.9047,0.9053,0.9029,0.9018,0.9019,0.9021,0.9061,0.9066,0.907,0,0,0,0,0,0.9266,0.9273,0.9259,0.9253,0.9212,0.9191,0.9186,0.9154,0.914,0.9142,0.9116,0.9093,0.9057,0.9051,0.9046,0.9051,0.9017,0.9019,0.9021,0.9059,0.9065,0.907,0,0,0,0,0,0,0.9315,0.9268,0.9251,0.9246,0.9223,0.9183,0.9184,0.9162,0.9142,0.9139,0.9101,0.9094,0.9086,0.9068,0.9062,0.9053,0.9034,0.9034,0.9065,0.907,0.9074,0.9078,0.9027,0,0,0,0,0,0.9325,0.9313,0.9272,0.9271,0.9261,0.9224,0.9214,0.9192,0.9167,0.9157,0.913,0.9107,0.9089,0.9079,0.9061,0.9059,0.9049,0.906,0.9064,0.9068,0.9068,0.9063,0.9067,0.9026,0.9026,0.9026,0,0,0.9346,0.9319,0.9313,0.928,0.926,0.9247,0.9216,0.9205,0.9194,0.9155,0.9142,0.9122,0.9093,0.9085,0.9081,0.907,0.9077,0.907,0.9073,0.9071,0.9065,0.9069,0.9072,0.9028,0.9027,0.9027,0,0,0.9376,0.9356,0.9351,0.9331,0.93,0.9275,0.9275,0.9237,0.9222,0.9209,0.9178,0.9165,0.9137,0.9117,0.9103,0.9124,0.9101,0.9119,0.9141,0.9136,0.9139,0.9142,0.9147,0.915,0.912,0.912,0.912,0,0.9406,0.9385,0.9352,0.9341,0.9327,0.929,0.9285,0.9267,0.9232,0.9223,0.9211,0.9173,0.9151,0.9137,0.9142,0.9133,0.9129,0.9123,0.9142,0.9144,0.9146,0.915,0.9153,0.9123,0.9122,0.9122,0.9122,0,0.9422,0.9408,0.9409,0.9374,0.936,0.9353,0.9317,0.9307,0.9286,0.9262,0.9248,0.922,0.9194,0.919,0.917,0.9172,0.9166,0.9149,0.9128,0.9152,0.9156,0.9158,0.9126,0.9125,0.9124,0.9124,0,0,0.9482,0.9428,0.9429,0.9411,0.9374,0.9362,0.9352,0.9327,0.9318,0.9295,0.9284,0.926,0.9243,0.9228,0.9205,0.9201,0.9216,0.9183,0.9182,0.9188,0.9214,0.9226,0.9229,0.9201,0.9201,0.9202,0.9216,0,0.9504,0.9484,0.9453,0.9442,0.9427,0.9392,0.9382,0.9358,0.9336,0.932,0.9295,0.9277,0.9258,0.9247,0.9242,0.9215,0.922,0.9214,0.9189,0.9189,0.9196,0.9231,0.9244,0.9258,0.9217,0.9217,0.9217,0,0.9528,0.9506,0.9494,0.9455,0.9448,0.944,0.9413,0.9399,0.937,0.9354,0.9335,0.931,0.9296,0.9278,0.9258,0.9254,0.9242,0.9228,0.9227,0.9223,0.9204,0.9225,0.9263,0.9264,0.922,0.922,0.9219,0,0.957,0.9537,0.9524,0.9511,0.9467,0.9462,0.9443,0.9413,0.9399,0.9376,0.9366,0.9342,0.9328,0.931,0.9278,0.9268,0.926,0.924,0.9245,0.9245,0.9243,0.9244,0.9278,0.9239,0.9239,0.9239,0.9239,0,0.9597,0.959,0.9542,0.9534,0.9525,0.9489,0.9481,0.9459,0.9433,0.9419,0.9388,0.9376,0.9335,0.9318,0.9293,0.9279,0.9273,0.9259,0.9252,0.926,0.9262,0.9251,0.9248,0.924,0.9239,0.9239,0.9239,0,0.9641,0.9609,0.9592,0.9551,0.9541,0.9536,0.95,0.949,0.9466,0.9449,0.9443,0.9404,0.9382,0.9349,0.9318,0.9301,0.929,0.928,0.9299,0.9295,0.93,0.9299,0.9327,0.9328,0.9291,0.9291,0.9292,0,0.966,0.9653,0.9611,0.96,0.9582,0.9564,0.9549,0.9514,0.9499,0.9465,0.9459,0.9435,0.9413,0.938,0.9348,0.9324,0.9311,0.9323,0.9308,0.9316,0.9309,0.9309,0.9307,0.9326,0.9327,0.9327,0.9328,0,0.9695,0.9679,0.9659,0.9633,0.9616,0.9594,0.957,0.9563,0.9522,0.9507,0.9484,0.9467,0.9434,0.941,0.938,0.936,0.9336,0.9333,0.9332,0.934,0.935,0.9342,0.9307,0.9332,0.9331,0.9331,0.9331,0.9331,0.9725,0.9717,0.9686,0.9664,0.9642,0.962,0.9609,0.9582,0.9562,0.9532,0.9513,0.949,0.946,0.9418,0.9399,0.938,0.937,0.9369,0.9369,0.9369,0.9371,0.9355,0.9375,0.9374,0.9374,0.9374,0.9374,0,0.9757,0.9735,0.9716,0.9683,0.9665,0.9645,0.9617,0.9603,0.9584,0.9557,0.9536,0.9509,0.9485,0.9451,0.9424,0.9415,0.9404,0.9409,0.9409,0.9404,0.9383,0.9385,0.9419,0.9419,0.9419,0.9419,0.9419,0.9419,0.9772,0.9756,0.9736,0.9709,0.9687,0.9664,0.965,0.9629,0.9607,0.9578,0.9557,0.9536,0.9506,0.9476,0.9452,0.9443,0.9434,0.9442,0.9429,0.941,0.9406,0.9402,0.9404,0.9441,0.9441,0.9452,0.9452,0.9452]}]]